When you browse on this site, cookies collect data to enhance your experience and personalize the content and advertising you see.
Visit our Privacy Policy to learn more. By continuing to use the site, you agree to this use of cookies and data.
EN

Hourly Weather Heswall

Today, 12 August, Wednesday

Time Temperature Precipitation Wind Pressure Humidity
00:00 +21°C° 0 mm 1 mps 759 mmHg 89%
01:00 +20°C° 0.9 mm 1 mps 758 mmHg 90%
02:00 +20°C° 0.9 mm 1 mps 758 mmHg 91%
03:00 +20°C° 0.9 mm 1 mps 758 mmHg 92%
04:00 +20°C° 1 mm 1 mps 758 mmHg 93%
05:00 +20°C° 1 mm 1 mps 758 mmHg 93%
06:00 +18°C° 1 mm 0 mps 758 mmHg 93%
07:00 +22°C° 0.1 mm 1 mps 758 mmHg 89%
08:00 +23°C° 0.1 mm 1 mps 758 mmHg 84%
09:00 +25°C° 0.1 mm 1 mps 758 mmHg 79%
10:00 +26°C° 0 mm 1 mps 758 mmHg 74%
11:00 +28°C° 0 mm 1 mps 758 mmHg 69%
12:00 +29°C° 0 mm 1 mps 758 mmHg 64%
13:00 +29°C° 0.1 mm 2 mps 757 mmHg 63%
14:00 +30°C° 0.1 mm 2 mps 757 mmHg 62%
15:00 +30°C° 0.1 mm 2 mps 757 mmHg 61%
16:00 +29°C° 0.7 mm 2 mps 757 mmHg 67%
17:00 +28°C° 0.7 mm 2 mps 757 mmHg 72%
18:00 +27°C° 0.7 mm 2 mps 756 mmHg 78%
19:00 +25°C° 1.2 mm 2 mps 757 mmHg 82%
20:00 +24°C° 1.2 mm 1 mps 757 mmHg 85%
21:00 +23°C° 1.2 mm 1 mps 757 mmHg 89%
22:00 +22°C° 0.1 mm 1 mps 757 mmHg 89%
23:00 +22°C° 0.1 mm 1 mps 757 mmHg 90%

Tomorrow, 13 August, Thursday

Time Temperature Precipitation Wind Pressure Humidity
00:00 +22°C° 0.1 mm 1 mps 757 mmHg 90%
01:00 +21°C° 0.2 mm 1 mps 757 mmHg 90%
02:00 +21°C° 0.2 mm 1 mps 756 mmHg 89%
03:00 +21°C° 0.2 mm 1 mps 756 mmHg 89%
04:00 +20°C° 0 mm 2 mps 756 mmHg 89%
05:00 +20°C° 0 mm 2 mps 756 mmHg 88%
06:00 +20°C° 0 mm 2 mps 756 mmHg 88%
07:00 +21°C° 0 mm 2 mps 756 mmHg 84%
08:00 +22°C° 0 mm 3 mps 756 mmHg 81%
09:00 +24°C° 0 mm 3 mps 756 mmHg 77%
10:00 +25°C° 0 mm 3 mps 756 mmHg 74%
11:00 +26°C° 0 mm 3 mps 756 mmHg 71%
12:00 +27°C° 0 mm 3 mps 756 mmHg 69%
13:00 +27°C° 0.1 mm 3 mps 756 mmHg 70%
14:00 +27°C° 0.1 mm 3 mps 756 mmHg 71%
15:00 +27°C° 0.1 mm 4 mps 756 mmHg 72%
16:00 +26°C° 0.3 mm 3 mps 756 mmHg 75%
17:00 +25°C° 0.3 mm 3 mps 756 mmHg 78%
18:00 +25°C° 0.3 mm 3 mps 756 mmHg 80%
19:00 +24°C° 0.9 mm 3 mps 756 mmHg 83%
20:00 +22°C° 0.9 mm 3 mps 756 mmHg 86%
21:00 +21°C° 0.9 mm 3 mps 757 mmHg 89%
22:00 +20°C° 0.5 mm 3 mps 757 mmHg 89%
23:00 +20°C° 0.5 mm 2 mps 757 mmHg 89%

Day after tomorrow, 14 August, Friday

Time Temperature Precipitation Wind Pressure Humidity
00:00 +20°C° 0.5 mm 2 mps 757 mmHg 90%
01:00 +20°C° 0.3 mm 2 mps 757 mmHg 90%
02:00 +19°C° 0.3 mm 2 mps 757 mmHg 90%
03:00 +19°C° 0.3 mm 2 mps 757 mmHg 90%
04:00 +20°C° 0.2 mm 1 mps 757 mmHg 90%
05:00 +20°C° 0.2 mm 1 mps 757 mmHg 91%
06:00 +21°C° 0.2 mm 1 mps 757 mmHg 91%
07:00 +21°C° 0.1 mm 1 mps 757 mmHg 90%
08:00 +21°C° 0.1 mm 1 mps 757 mmHg 89%
09:00 +21°C° 0.1 mm 1 mps 757 mmHg 88%
10:00 +22°C° 0.1 mm 1 mps 757 mmHg 86%
11:00 +22°C° 0.1 mm 1 mps 757 mmHg 85%
12:00 +23°C° 0.1 mm 1 mps 757 mmHg 83%
13:00 +23°C° 0.3 mm 1 mps 757 mmHg 84%
14:00 +23°C° 0.3 mm 1 mps 758 mmHg 84%
15:00 +23°C° 0.3 mm 1 mps 758 mmHg 84%
16:00 +21°C° 0.1 mm 2 mps 758 mmHg 85%
17:00 +21°C° 0.1 mm 2 mps 758 mmHg 86%
18:00 +21°C° 0.1 mm 2 mps 758 mmHg 87%
19:00 +20°C° 0.2 mm 2 mps 758 mmHg 89%
20:00 +20°C° 0.2 mm 2 mps 759 mmHg 90%
21:00 +19°C° 0.2 mm 2 mps 759 mmHg 92%
22:00 +19°C° 0.2 mm 2 mps 759 mmHg 93%
23:00 +19°C° 0.2 mm 2 mps 759 mmHg 93%

15 August, Saturday

Time Temperature Precipitation Wind Pressure Humidity
00:00 +18°C° 0.2 mm 2 mps 759 mmHg 94%
01:00 +18°C° 0.3 mm 2 mps 759 mmHg 94%
02:00 +18°C° 0.3 mm 2 mps 759 mmHg 93%
03:00 +18°C° 0.3 mm 2 mps 759 mmHg 93%
04:00 +18°C° 0.1 mm 2 mps 759 mmHg 93%
05:00 +18°C° 0.1 mm 2 mps 759 mmHg 93%
06:00 +17°C° 0.1 mm 2 mps 759 mmHg 92%
07:00 +18°C° 0 mm 2 mps 759 mmHg 90%
08:00 +18°C° 0 mm 2 mps 759 mmHg 88%
09:00 +19°C° 0 mm 2 mps 759 mmHg 85%
10:00 +19°C° 0 mm 2 mps 759 mmHg 82%
11:00 +20°C° 0 mm 2 mps 759 mmHg 79%
12:00 +21°C° 0 mm 2 mps 759 mmHg 76%
13:00 +21°C° 0 mm 2 mps 759 mmHg 74%
14:00 +21°C° 0 mm 2 mps 759 mmHg 73%
15:00 +21°C° 0 mm 2 mps 759 mmHg 72%
16:00 +21°C° 0 mm 2 mps 758 mmHg 75%
17:00 +20°C° 0 mm 2 mps 758 mmHg 78%
18:00 +19°C° 0 mm 2 mps 758 mmHg 82%
19:00 +19°C° 0 mm 2 mps 758 mmHg 84%
20:00 +18°C° 0 mm 2 mps 758 mmHg 86%
21:00 +18°C° 0 mm 2 mps 758 mmHg 88%
22:00 +19°C° 0.1 mm 1 mps 758 mmHg 89%
23:00 +19°C° 0.1 mm 1 mps 758 mmHg 90%

16 August, Sunday

Time Temperature Precipitation Wind Pressure Humidity
00:00 +19°C° 0.1 mm 1 mps 757 mmHg 91%
01:00 +19°C° 0.2 mm 1 mps 757 mmHg 91%
02:00 +19°C° 0.2 mm 1 mps 757 mmHg 92%
03:00 +19°C° 0.2 mm 1 mps 757 mmHg 92%
04:00 +19°C° 0.3 mm 1 mps 756 mmHg 92%
05:00 +18°C° 0.3 mm 2 mps 756 mmHg 92%
06:00 +18°C° 0.3 mm 2 mps 756 mmHg 93%
07:00 +19°C° 0.1 mm 2 mps 756 mmHg 91%
08:00 +19°C° 0.1 mm 2 mps 756 mmHg 90%
09:00 +19°C° 0.1 mm 2 mps 756 mmHg 89%
10:00 +19°C° 0.1 mm 2 mps 755 mmHg 89%
11:00 +19°C° 0.1 mm 2 mps 755 mmHg 90%
12:00 +19°C° 0.1 mm 2 mps 755 mmHg 90%
13:00 +20°C° 0.1 mm 2 mps 754 mmHg 89%
14:00 +20°C° 0.1 mm 2 mps 754 mmHg 88%
15:00 +20°C° 0.1 mm 2 mps 754 mmHg 87%
16:00 +20°C° 0.1 mm 2 mps 754 mmHg 87%
17:00 +20°C° 0.1 mm 2 mps 753 mmHg 86%
18:00 +20°C° 0.1 mm 2 mps 753 mmHg 86%
19:00 +20°C° 0.1 mm 2 mps 753 mmHg 88%
20:00 +19°C° 0.1 mm 2 mps 753 mmHg 90%
21:00 +18°C° 0.1 mm 2 mps 753 mmHg 92%
22:00 +18°C° 0 mm 2 mps 753 mmHg 92%
23:00 +18°C° 0 mm 2 mps 753 mmHg 93%

17 August, Monday

Time Temperature Precipitation Wind Pressure Humidity
00:00 +18°C° 0 mm 2 mps 753 mmHg 93%
01:00 +18°C° 0.1 mm 2 mps 753 mmHg 93%
02:00 +18°C° 0.1 mm 2 mps 752 mmHg 93%
03:00 +18°C° 0.1 mm 2 mps 752 mmHg 92%
04:00 +18°C° 0.1 mm 2 mps 752 mmHg 92%
05:00 +19°C° 0.1 mm 1 mps 752 mmHg 92%
06:00 +19°C° 0.1 mm 1 mps 752 mmHg 92%
07:00 +19°C° 0 mm 1 mps 752 mmHg 90%
08:00 +20°C° 0 mm 1 mps 752 mmHg 87%
09:00 +20°C° 0 mm 1 mps 752 mmHg 85%
10:00 +20°C° 0.1 mm 2 mps 752 mmHg 82%
11:00 +21°C° 0.1 mm 2 mps 752 mmHg 79%
12:00 +21°C° 0.1 mm 3 mps 752 mmHg 76%
13:00 +21°C° 0.3 mm 4 mps 752 mmHg 77%
14:00 +21°C° 0.3 mm 4 mps 752 mmHg 78%
15:00 +20°C° 0.3 mm 5 mps 752 mmHg 79%
16:00 +20°C° 0 mm 5 mps 752 mmHg 80%
17:00 +19°C° 0 mm 5 mps 752 mmHg 82%
18:00 +19°C° 0 mm 5 mps 753 mmHg 83%
19:00 +17°C° 0 mm 5 mps 753 mmHg 84%
20:00 +17°C° 0 mm 5 mps 754 mmHg 85%
21:00 +17°C° 0 mm 5 mps 754 mmHg 86%
22:00 +16°C° 0 mm 5 mps 754 mmHg 87%
23:00 +16°C° 0 mm 6 mps 755 mmHg 88%
Show more